Regional Weather Roundup
Issued by NWS Sterling, VA

Home | Current Version | Previous Version | Text Only | Print | Product List | Glossary Off
Versions: 1 2 3 4 5 6 7 8 9 10 11 12 13 14 15 16 17 18 19 20 21 22 23 24 25 26

154
ASUS41 KLWX 211210
RWRLWX

REGIONAL WEATHER ROUNDUP
NATIONAL WEATHER SERVICE BALTIMORE MD/WASHINGTON DC
800 AM EDT THU MAY 21 2015

Note: "FAIR" indicates few or no clouds below 12,000 feet
with no significant weather and/or obstructions to visibility.
 TC=TEMPERATURE CELSIUS

 * =Non NWS site. Station does not report precipitation (e.g. rain,
    snow, etc.), thunder, or fog.

DCZ001-MDZ009-015-VAZ040>042-051-053>054-211300-
WASHINGTON METRO

CITY           SKY/WX    TMP DP  RH WIND       PRES   REMARKS
WASHINGTON NAT CLOUDY    61  44  53 E6        29.99S
DULLES         LGT RAIN  57  46  66 CALM      29.99R
ANDREWS AFB    CLOUDY    56  47  72 E6        29.98S
FT BELVOIR     DRIZZLE   57  46  67 VRB3      29.99R
QUANTICO       LGT RAIN  58  49  72 VRB3      30.01R
COLLEGE PARK*  CLOUDY    57  45  62 CALM      29.99R
LEESBURG*      LGT RAIN  54  52  94 N3        30.00S
GAITHERSBURG*  CLOUDY    54  45  71 CALM      30.04R

$$

MDZ006>007-011-014-211300-
BALTIMORE METRO

CITY           SKY/WX    TMP DP  RH WIND       PRES   REMARKS
BWI AIRPORT    CLOUDY    57  39  51 E10       29.99S
MD SCIENCE CTR   N/A     58  43  57 MISG      30.01R
MARTIN STATE   CLOUDY    59  43  55 E6        30.01F
ANNAPOLIS      CLOUDY    59  39  47 E12       29.99S
FORT MEADE*    CLOUDY    55  45  67 E5        30.02R

$$

MDZ012-015-019>023-211300-
MARYLAND EASTERN SHORE

CITY           SKY/WX    TMP DP  RH WIND       PRES   REMARKS
OCEAN CITY     CLOUDY    58  44  60 E10       29.99F
SALISBURY      CLOUDY    54  46  74 E5        29.98F
BAY BRIDGE AP*   N/A    N/A N/A N/A E8        29.99S
CAMBRIDGE*     CLOUDY    55  45  67 NE5       29.99S
EASTON*        CLOUDY    57  46  67 SE5       30.03F

$$

MDZ017>025-211300-
SOUTHERN MARYLAND

CITY           SKY/WX    TMP DP  RH WIND       PRES   REMARKS
PATUXENT RIVER LGT RAIN  59  48  67 E12       29.98F
ST INIGOES     CLOUDY    60  49  66 E7        29.97S
LEONARDTOWN*   CLOUDY    55  46  71 E5        30.00R

$$

MDZ003>005-211300-
NORTH CENTRAL MARYLAND

CITY           SKY/WX    TMP DP  RH WIND       PRES   REMARKS
FREDERICK*     NOT AVBL
HAGERSTOWN APT CLOUDY    53  49  86 N5        30.01R
WESTMINSTER*   LGT RAIN  52  45  76 E3        30.01R

$$

MDZ501>502-211300-
WESTERN MARYLAND

CITY           SKY/WX    TMP DP  RH WIND       PRES   REMARKS
OAKLAND*       CLOUDY    41 N/A N/A E7        29.97R
CUMBERLAND*    CLOUDY    50  48  93 N5        30.04R

$$

VAZ025>031-211300-
SHENANDOAH VALLEY

CITY           SKY/WX    TMP DP  RH WIND       PRES   REMARKS
WINCHESTER*    CLOUDY    54  43  66 NE5       29.98S
FRONT ROYAL*   CLOUDY    52  50  93 CALM      29.97R
LURAY*         LGT RAIN  54  54 100 N5        29.97S
NEW MARKET*    CLOUDY    50  48  93 CALM      29.97R
STAUNTON*      DRIZZLE   54  48  82 CALM      29.99R
WAYNESBORO*    CLOUDY    53  44  73 CALM      29.98R

$$

WVZ021-048>050-054>055-211300-
EASTERN WEST VIRGINIA PANHANDLE

CITY           SKY/WX    TMP DP  RH WIND       PRES   REMARKS
MARTINSBURG    CLOUDY    52  48  86 NE6       30.00R
PETERSBURG*    CLOUDY    50  44  80 NW3       29.99R

$$

VAZ036>039-050-211300-
CENTRAL FOOTHILLS

CITY           SKY/WX    TMP DP  RH WIND       PRES   REMARKS
CHARLOTTESVILL CLOUDY    56  46  69 NE7       29.97R
CULPEPER*      DRIZZLE   53  50  92 CALM      29.99S
ORANGE*        CLOUDY    55  50  82 N3        29.98S
GORDONSVILLE*  CLOUDY    54  49  82 NE6       29.97S
WARRENTON*     RAIN      55  53  92 CALM      29.99R

$$

VAZ055>057-211300-
NORTH AND CENTRAL PIEDMONT

CITY           SKY/WX    TMP DP  RH WIND       PRES   REMARKS
FREDERICKSBRG* RAIN      57  52  84 NE3       29.98R
STAFFORD*      DRIZZLE   55  50  83 E6        30.02R

$$

NCZ024-NYZ072-PAZ021-071-VAZ022-071-211300-
OTHER REGIONAL OBSERVATIONS

CITY           SKY/WX    TMP DP  RH WIND       PRES   REMARKS
NEW YORK CITY  CLOUDY    54  35  48 VRB3      30.05R
PHILADELPHIA   CLOUDY    56  36  47 E7        30.02S
PITTSBURGH     CLOUDY    46  41  82 NE7       30.01S
RICHMOND       LGT RAIN  59  51  75 E8        29.94F
RALEIGH        LGT RAIN  67  54  63 SE14G22   29.88F

$$

ANZ530>537-211300-
MARINE OBSERVATIONS

STATION/POSITION TIME  TEMP    WIND        PRES
                       AIR SEA DIR/SP/G
                 (UTC) (F)     (DEG/KT/KT) (MB)
THOMAS PT LIGHT  1200   58 67  110/ 14/ 16 1016.0F
BALT KEY BRIDGE  1100   58      90/ 12/ 13 1015.5S
COVE POINT       1100   57     120/ 12/ 15 1016.3F
LEWISETTA        1100   62 73              1014.4R
PINEY POINT      1100          110/ 16/ 18   N/A

$$




USA.gov is the U.S. government's official web portal to all federal, state and local government web resources and services.